Weather History for Ortonville, MN

Change the Weather History Date:

Sunday, December 2, 2012

  Actual Average (KAQP) Record (KAQP)
Temperature  
Mean Temperature 40 °F -  
Max Temperature 60 °F 30 °F 57 °F (2012)
Min Temperature 21 °F 15 °F -5 °F (2000)
Degree Days  
Heating Degree Days 24    
Moisture  
Dew Point 30 °F    
Average Humidity 74    
Maximum Humidity 100    
Minimum Humidity 39    
Precipitation  
Precipitation 0.00 in - - ()
Sea Level Pressure  
Sea Level Pressure 29.78 in    
Wind  
Wind Speed 6 mph (SE)    
Max Wind Speed 16 mph    
Max Gust Speed 21 mph    
Visibility 6 miles    
Events Fog , Snow    
Averages and records for this station are not official NWS values.
T = Trace of Precipitation, MM = Missing Value Source: NWS Daily Summary

Daily Weather History Graph

Daily Weather History Graph

Search for Another Location

Airport:

Trip Planner

Search our weather history database for the weather conditions in past years. The results will help you decide how hot, cold, wet, or windy it might be!

Date:

Astronomy

Dec. 02, 2012 Rise Set
Actual Time 7:46 AM CST 4:44 PM CST
Civil Twilight 7:13 AM CST 5:17 PM CST
Nautical Twilight 6:36 AM CST 5:54 PM CST
Astronomical Twilight 6:00 AM CST 6:30 PM CST
Moon 8:37 PM CST (12/2) 10:32 AM CST (12/2)
Length of Visible Light 10h 04m
Length of Day
8h 57m
Waning Gibbous, 85% of the Moon is Illuminated
Dec 2
Waning Gibbous
Dec 6
Last Quarter
Dec 13
New
Dec 19
First Quarter
Dec 28
Full

Hourly Weather History & Observations

Time (CST) Temp. Windchill Dew Point Humidity Pressure Visibility Wind Dir Wind Speed Gust Speed Precip Events Conditions
12:14 AM 28.4 °F 24.6 °F 24.8 °F 86% 29.89 in 5.0 mi NW 3.5 mph - N/A   Clear
12:33 AM 28.4 °F - 26.6 °F 93% 29.89 in 4.0 mi Calm Calm - N/A   Clear
12:54 AM 28.4 °F - 24.8 °F 86% 29.90 in 4.0 mi Calm Calm - N/A   Clear
1:14 AM 26.6 °F - 24.8 °F 93% 29.89 in 4.0 mi Calm Calm - N/A   Clear
1:34 AM 26.6 °F - 24.8 °F 93% 29.89 in 3.0 mi Calm Calm - N/A   Clear
1:54 AM 26.6 °F - 23.0 °F 86% 29.90 in 3.0 mi Calm Calm - N/A   Clear
2:13 AM 26.6 °F 22.6 °F 24.8 °F 93% 29.90 in 4.0 mi West 3.5 mph - N/A   Clear
2:34 AM 26.6 °F 20.0 °F 23.0 °F 86% 29.91 in 4.0 mi SW 5.8 mph - N/A   Clear
2:54 AM 26.6 °F - 23.0 °F 86% 29.91 in 4.0 mi Calm Calm - N/A   Clear
3:13 AM 24.8 °F - 21.2 °F 86% 29.91 in 4.0 mi Calm Calm - N/A   Clear
3:34 AM 23.0 °F - 21.2 °F 93% 29.91 in 3.0 mi Calm Calm - N/A   Clear
3:54 AM 24.8 °F - 21.2 °F 86% 29.91 in 4.0 mi Calm Calm - N/A   Scattered Clouds
4:13 AM 23.0 °F - 21.2 °F 93% 29.90 in 2.5 mi Calm Calm - N/A   Scattered Clouds
4:34 AM 21.2 °F 14.9 °F 19.4 °F 93% 29.90 in 0.5 mi East 4.6 mph - N/A Fog Light Freezing Fog
4:54 AM 23.0 °F 17.0 °F 19.4 °F 86% 29.89 in 0.2 mi East 4.6 mph - N/A Fog Light Freezing Fog
5:14 AM 21.2 °F 14.9 °F 19.4 °F 93% 29.90 in 0.2 mi East 4.6 mph - N/A Fog Light Freezing Fog
5:34 AM 23.0 °F 18.4 °F 21.2 °F 93% 29.90 in 0.2 mi ESE 3.5 mph - N/A Fog Light Freezing Fog
5:54 AM 23.0 °F 17.0 °F 21.2 °F 93% 29.91 in 0.2 mi ESE 4.6 mph - N/A Snow Light Snow
6:14 AM 23.0 °F 17.0 °F 21.2 °F 93% 29.90 in 0.2 mi SE 4.6 mph - N/A Fog Light Freezing Fog
6:34 AM 23.0 °F 17.0 °F 19.4 °F 86% 29.91 in 0.2 mi SE 4.6 mph - N/A Fog Light Freezing Fog
6:54 AM 23.0 °F - 19.4 °F 86% 29.92 in 0.5 mi Calm Calm - N/A Snow Light Snow
7:14 AM 21.2 °F 13.6 °F 19.4 °F 93% 29.91 in 0.2 mi East 5.8 mph - N/A Fog Light Freezing Fog
7:34 AM 21.2 °F - 19.4 °F 93% 29.91 in 1.2 mi Calm Calm - N/A   Overcast
7:54 AM 21.2 °F 14.9 °F 19.4 °F 93% 29.91 in 0.8 mi ESE 4.6 mph - N/A   Overcast
8:14 AM 21.2 °F 14.9 °F 19.4 °F 93% 29.91 in 0.2 mi ESE 4.6 mph - N/A Fog Light Freezing Fog
8:33 AM 23.0 °F 15.8 °F 21.2 °F 93% 29.90 in 0.8 mi ESE 5.8 mph - N/A   Overcast
8:54 AM 24.8 °F 19.1 °F 23.0 °F 93% 29.90 in 1.8 mi SE 4.6 mph - N/A   Mostly Cloudy
9:14 AM 26.6 °F 20.0 °F 24.8 °F 93% 29.90 in 2.0 mi SE 5.8 mph - N/A   Clear
9:34 AM 26.6 °F 19.1 °F 24.8 °F 93% 29.89 in 2.0 mi SE 6.9 mph - N/A   Clear
9:54 AM 28.4 °F 20.4 °F 26.6 °F 93% 29.89 in 2.5 mi SE 8.1 mph - N/A   Clear
10:14 AM 28.4 °F 19.1 °F 26.6 °F 93% 29.88 in 3.0 mi SE 10.4 mph - N/A   Clear
10:34 AM 30.2 °F 21.3 °F 30.2 °F 100% 29.87 in 4.0 mi SE 10.4 mph - N/A   Clear
10:54 AM 33.8 °F 26.4 °F 30.2 °F 87% 29.87 in 4.0 mi SE 9.2 mph - N/A   Clear
11:14 AM 35.6 °F 27.5 °F 30.2 °F 81% 29.86 in 5.0 mi SE 11.5 mph - N/A   Haze
11:34 AM 39.2 °F 32.0 °F 32.0 °F 75% 29.85 in 7.0 mi SE 11.5 mph - N/A   Clear
11:54 AM 44.6 °F 38.4 °F 33.8 °F 66% 29.83 in 7.0 mi SE 12.7 mph - N/A   Clear
12:13 PM 46.4 °F 40.1 °F 35.6 °F 66% 29.81 in 10.0 mi SE 15.0 mph - N/A   Clear
12:34 PM 48.2 °F - 35.6 °F 62% 29.78 in 10.0 mi SSE 12.7 mph 17.3 mph N/A   Clear
12:54 PM 51.8 °F - 35.6 °F 54% 29.77 in 10.0 mi SSE 11.5 mph 18.4 mph N/A   Clear
1:13 PM 53.6 °F - 37.4 °F 54% 29.78 in 10.0 mi SSE 9.2 mph - N/A   Clear
1:34 PM 55.4 °F - 37.4 °F 51% 29.77 in 10.0 mi SSE 13.8 mph 18.4 mph N/A   Clear
1:54 PM 57.2 °F - 37.4 °F 48% 29.76 in 10.0 mi SSE 8.1 mph 16.1 mph N/A   Clear
2:14 PM 55.4 °F - 37.4 °F 51% 29.75 in 10.0 mi SE 12.7 mph - N/A   Clear
2:34 PM 57.2 °F - 37.4 °F 48% 29.74 in 10.0 mi SSE 9.2 mph - N/A   Clear
2:53 PM 60.8 °F - 37.4 °F 42% 29.72 in 10.0 mi SSE 11.5 mph - N/A   Clear
3:14 PM 59.0 °F - 35.6 °F 42% 29.71 in 10.0 mi SSE 12.7 mph 17.3 mph N/A   Clear
3:33 PM 60.8 °F - 35.6 °F 39% 29.71 in 10.0 mi SSE 15.0 mph 20.7 mph N/A   Clear
3:54 PM 57.2 °F - 35.6 °F 44% 29.69 in 10.0 mi SSE 16.1 mph - N/A   Clear
4:14 PM 57.2 °F - 35.6 °F 44% 29.69 in 10.0 mi SSE 9.2 mph - N/A   Clear
4:34 PM 55.4 °F - 35.6 °F 47% 29.70 in 10.0 mi SSE 10.4 mph 20.7 mph N/A   Clear
4:54 PM 51.8 °F - 35.6 °F 54% 29.68 in 10.0 mi SSE 13.8 mph - N/A   Clear
5:13 PM 51.8 °F - 35.6 °F 54% 29.67 in 10.0 mi SE 12.7 mph - N/A   Clear
5:34 PM 51.8 °F - 35.6 °F 54% 29.67 in 10.0 mi SE 13.8 mph - N/A   Clear
5:53 PM 50.0 °F - 35.6 °F 58% 29.67 in 10.0 mi SE 15.0 mph - N/A   Clear
6:14 PM 50.0 °F - 35.6 °F 58% 29.66 in 10.0 mi SE 16.1 mph - N/A   Clear
6:34 PM 48.2 °F - 35.6 °F 62% 29.65 in 10.0 mi SE 15.0 mph - N/A   Clear
6:54 PM 48.2 °F - 35.6 °F 62% 29.65 in 10.0 mi SE 16.1 mph - N/A   Clear
7:14 PM 46.4 °F 39.8 °F 35.6 °F 66% 29.64 in 10.0 mi SE 16.1 mph - N/A   Clear
7:34 PM 46.4 °F 39.8 °F 35.6 °F 66% 29.63 in 10.0 mi SE 16.1 mph - N/A   Clear
7:54 PM 46.4 °F 40.4 °F 35.6 °F 66% 29.62 in 10.0 mi SE 13.8 mph - N/A   Clear
8:13 PM 46.4 °F 39.8 °F 35.6 °F 66% 29.61 in 10.0 mi SE 16.1 mph - N/A   Clear
8:34 PM 46.4 °F 40.4 °F 35.6 °F 66% 29.61 in 10.0 mi SE 13.8 mph - N/A   Clear
8:54 PM 46.4 °F 41.5 °F 35.6 °F 66% 29.60 in 10.0 mi SE 10.4 mph - N/A   Clear
9:14 PM 48.2 °F - 35.6 °F 62% 29.60 in 10.0 mi SE 8.1 mph - N/A   Clear
9:34 PM 48.2 °F - 35.6 °F 62% 29.58 in 10.0 mi SSE 13.8 mph 18.4 mph N/A   Clear
9:53 PM 51.8 °F - 37.4 °F 58% 29.57 in 10.0 mi SSE 13.8 mph 19.6 mph N/A   Clear
10:14 PM 50.0 °F - 37.4 °F 62% 29.57 in 10.0 mi SSE 11.5 mph 20.7 mph N/A   Clear
10:34 PM 48.2 °F - 37.4 °F 66% 29.57 in 10.0 mi SSE 10.4 mph - N/A   Clear
10:54 PM 46.4 °F 41.5 °F 37.4 °F 71% 29.56 in 10.0 mi SE 10.4 mph - N/A   Clear
11:14 PM 46.4 °F 40.7 °F 37.4 °F 71% 29.55 in 10.0 mi SE 12.7 mph - N/A   Clear
11:34 PM 46.4 °F 42.4 °F 37.4 °F 71% 29.55 in 10.0 mi SSE 8.1 mph - N/A   Clear
11:54 PM 50.0 °F - 37.4 °F 62% 29.55 in 10.0 mi South 10.4 mph - N/A   Clear